GFSSW_925_temp_021.txt.gz
Temp
14 16 17 18 19 19 18 19 19 21 22 23 24 24 25 25 26 22 31 33 33 32 29 31 33 35 35 37 39 40 36 38 39 39 37 38 37 37 38 35 35 36 34 33 31
11 14 16 17 18 19 19 18 19 20 21 22 23 24 24 25 23 31 32 32 32 31 30 34 36 37 37 38 39 38 28 37 40 39 39 38 38 37 36 35 35 35 35 32 31
9 11 14 16 17 18 18 18 19 20 20 22 23 24 24 24 29 35 31 31 30 30 33 35 37 38 37 39 39 40 36 40 40 40 40 38 38 38 37 35 35 34 33 32 31
9 11 13 15 16 17 17 18 19 21 21 22 22 23 23 22 32 33 30 29 30 29 32 36 37 37 37 38 40 39 37 40 40 40 40 39 39 38 37 38 37 36 34 33 32
10 13 14 14 15 16 16 17 19 21 22 22 22 22 20 29 32 31 31 30 28 29 33 36 37 38 37 39 40 40 40 41 41 40 40 40 38 38 37 38 37 36 34 33 33
12 13 13 14 15 16 17 18 20 21 22 23 22 20 22 29 34 32 32 30 32 31 34 36 37 39 39 39 40 41 41 41 41 41 40 39 39 38 38 38 37 35 34 34 34
11 12 12 14 15 16 18 19 20 22 23 22 22 16 27 31 34 33 32 33 34 34 35 36 37 38 39 39 41 41 39 40 40 40 39 40 38 37 38 37 36 35 35 35 34
11 12 12 15 16 16 17 20 21 21 21 20 20 19 29 33 33 33 33 33 34 34 35 36 36 38 39 40 41 39 40 39 40 40 40 39 37 38 38 37 36 36 35 35 34
9 10 11 15 17 18 19 19 20 19 20 20 18 25 31 31 32 33 33 34 34 34 35 36 37 37 38 38 39 39 38 39 39 40 39 38 31 38 38 38 37 36 36 35 34
9 10 11 14 16 18 21 20 17 16 17 19 23 28 31 34 35 34 34 34 36 36 35 35 36 36 37 38 37 38 38 40 39 39 39 38 37 39 38 38 37 37 36 35 35
9 9 11 14 16 17 19 24 25 24 24 31 33 33 35 36 34 34 34 35 36 35 35 36 35 35 37 38 39 40 40 40 41 41 39 38 38 38 38 38 38 38 36 36 35
9 9 12 14 16 18 18 27 26 24 26 31 32 33 34 36 35 35 34 34 35 34 36 35 35 37 38 39 39 40 40 40 41 41 40 39 39 40 38 38 38 38 37 37 36
8 8 9 15 17 18 23 25 23 24 27 31 34 34 35 35 34 35 36 35 35 35 36 36 37 38 38 38 38 39 40 40 40 41 40 39 37 39 40 39 38 38 39 38 37
8 8 8 11 18 20 25 23 23 24 27 33 34 34 35 35 33 36 37 36 36 35 36 37 39 38 38 38 39 38 40 40 41 36 36 39 37 39 40 39 39 38 39 39 38
8 8 8 11 12 21 23 22 23 25 29 36 35 35 35 34 36 35 36 36 35 36 37 36 37 37 37 38 39 38 41 40 40 40 39 39 38 39 40 39 39 39 39 39 39
8 8 9 14 15 18 20 21 24 26 29 35 35 33 33 34 36 36 35 37 37 36 37 37 39 38 38 39 39 40 40 40 40 40 37 39 37 39 37 40 41 41 40 39 40
8 9 9 10 19 21 20 24 26 27 34 34 34 35 34 34 35 34 34 34 34 33 34 36 37 38 39 37 39 38 38 37 37 37 37 39 38 36 42 41 41 41 42 41 40
9 11 12 15 17 18 18 24 25 31 32 36 36 35 34 36 36 35 34 34 35 36 36 35 34 37 38 37 37 38 38 37 34 36 38 40 38 40 42 42 43 42 43 43 41
8 15 17 19 18 17 22 24 27 30 34 34 35 34 35 36 36 36 35 35 36 36 35 36 35 38 38 38 38 38 38 40 38 39 38 40 40 41 41 42 42 41 42 42 42
9 14 19 19 17 18 21 22 28 30 34 34 33 34 34 35 35 35 35 36 36 37 38 37 35 38 38 38 38 38 40 38 39 36 36 39 39 39 40 40 41 41 42 42 42
11 19 19 18 17 19 20 23 26 28 30 31 32 33 35 35 36 35 35 37 37 37 37 37 36 36 38 37 36 37 39 39 39 39 37 37 39 42 40 40 40 41 42 43 42
15 18 19 18 19 21 21 23 23 27 30 30 31 32 33 35 35 36 35 36 38 37 36 37 36 35 36 38 38 38 37 38 39 36 38 39 39 43 42 41 41 42 43 43 43
15 18 20 19 19 21 23 24 26 26 27 29 29 30 32 32 33 34 35 37 36 36 36 37 35 34 34 37 38 36 37 39 39 39 37 37 38 42 42 42 42 41 42 42 43
13 17 20 21 21 20 21 22 23 25 26 27 27 29 30 30 32 32 33 35 36 35 30 34 36 34 35 35 37 36 36 37 38 38 37 37 38 40 41 40 41 41 41 42 42
13 16 18 17 19 17 16 19 18 18 21 23 25 27 28 28 30 31 32 34 35 33 33 34 33 35 35 36 37 37 36 37 36 37 37 38 38 39 40 41 41 41 41 41 41
9 13 14 16 17 16 16 18 19 20 19 18 21 20 26 27 29 29 31 32 33 34 33 34 32 34 34 36 36 36 37 37 36 37 37 38 38 40 41 41 41 41 41 41 41
9 10 12 13 15 16 17 16 16 17 18 19 15 16 21 24 24 26 30 33 33 33 32 33 33 32 32 34 35 34 35 36 37 37 37 36 37 39 39 40 40 40 40 40 40

GFSSW_925_temp_024.txt.gz
Temp
12 14 16 17 18 18 18 18 19 20 21 22 23 23 24 24 25 23 28 32 33 32 31 31 31 33 36 37 38 28 28 35 37 39 37 38 37 39 38 36 36 35 33 33 33
12 14 15 16 16 16 17 18 18 20 21 22 23 23 23 24 21 28 31 31 32 32 31 34 35 36 37 37 37 24 25 34 34 38 38 39 38 37 36 36 36 35 35 33 33
14 15 15 15 16 16 17 17 18 19 21 22 23 23 24 23 27 34 31 31 32 32 33 35 37 38 37 38 38 28 25 33 36 38 40 39 38 38 36 35 36 34 33 33 33
13 14 14 14 15 16 17 17 18 20 21 22 23 23 23 21 30 32 32 31 31 30 32 34 37 37 37 37 40 31 35 35 38 41 39 39 39 38 38 37 37 35 34 33 33
10 12 13 14 15 16 17 18 19 20 21 22 23 22 21 28 31 31 32 32 30 30 33 35 37 37 37 38 40 39 36 38 42 41 40 40 39 38 38 38 37 36 34 33 33
10 12 13 14 15 16 17 18 20 20 22 22 22 19 20 27 32 34 32 31 33 32 34 36 37 38 38 39 39 41 41 41 42 41 41 39 39 38 38 38 37 35 34 34 34
10 10 12 14 14 15 17 19 21 22 21 21 20 15 26 30 33 33 34 34 33 34 35 36 37 38 39 38 40 41 40 41 41 41 40 40 38 38 38 38 37 35 34 34 34
10 11 13 15 15 15 16 19 21 21 21 19 18 17 27 32 33 32 35 34 35 35 36 36 37 37 38 39 39 39 40 39 41 41 41 40 36 39 38 38 36 35 35 35 34
9 9 12 15 16 17 18 21 21 20 19 19 16 22 29 33 33 34 35 35 35 36 36 36 38 37 37 37 37 38 38 39 39 41 40 39 33 36 39 38 37 36 35 35 35
9 9 10 13 15 17 19 22 21 18 19 18 22 27 31 34 35 35 35 35 36 36 36 36 36 36 36 36 35 37 38 39 39 40 40 38 32 34 37 38 37 37 36 35 35
8 9 10 13 16 17 17 18 27 24 23 29 31 31 36 35 36 36 36 36 36 36 34 35 34 34 36 37 38 39 39 39 40 39 40 37 29 27 32 37 38 37 37 36 36
8 8 9 13 17 19 17 25 28 27 26 30 31 32 34 37 35 36 36 35 35 34 35 35 34 36 38 38 38 38 39 40 41 38 39 39 35 33 37 38 39 38 37 37 36
9 9 9 13 17 20 23 25 26 26 26 29 32 33 34 35 35 37 37 36 35 34 35 35 36 38 38 38 37 38 38 39 40 40 40 40 39 39 39 39 39 39 39 38 37
9 9 9 10 19 18 23 26 26 26 26 31 35 34 35 35 34 37 38 36 35 35 36 36 38 37 37 37 38 37 40 40 40 39 37 39 37 38 39 38 38 39 39 39 38
8 9 9 10 11 17 24 24 24 27 27 38 37 38 37 35 37 36 37 37 35 36 36 35 37 37 37 38 39 38 40 40 40 39 38 36 36 38 38 38 39 39 39 40 39
8 9 9 12 15 17 20 23 25 26 27 36 36 35 35 36 36 38 36 37 37 36 37 37 39 39 39 39 39 40 39 40 40 40 36 38 36 37 38 35 38 40 40 40 40
9 9 9 9 16 19 20 24 25 26 34 35 36 36 35 35 35 37 35 35 35 33 34 36 37 39 39 38 39 39 38 37 36 37 37 40 37 37 39 39 40 38 36 41 41
9 10 13 13 16 17 20 22 23 30 30 37 38 37 35 36 35 36 35 34 35 35 35 34 34 37 39 38 38 38 38 37 34 36 37 40 39 39 39 40 38 36 36 42 41
9 13 16 19 20 19 21 22 25 28 33 34 36 36 36 36 37 36 36 35 36 36 35 36 35 39 39 39 39 38 37 39 38 38 38 40 40 42 41 40 39 39 41 42 41
8 12 17 20 22 20 20 20 25 28 30 32 32 35 35 36 36 36 36 36 36 37 37 36 35 38 39 39 39 38 39 37 37 35 35 39 38 39 39 35 37 40 41 42 42
10 17 20 21 21 20 19 21 23 25 27 27 27 29 32 35 36 36 37 38 38 38 38 37 37 37 39 37 37 37 37 38 38 38 37 37 39 42 41 39 40 40 41 42 43
13 16 22 21 20 21 20 22 21 24 26 26 28 29 29 31 33 36 36 38 39 38 37 37 36 35 37 39 39 38 37 37 36 35 38 38 39 43 42 41 41 41 42 42 42
13 16 18 20 19 20 22 23 24 24 25 26 26 28 30 30 30 32 34 39 39 38 37 38 35 34 35 38 39 38 38 38 38 38 36 37 38 41 41 39 39 41 41 40 40
12 15 19 22 21 21 20 19 21 24 23 26 24 26 27 28 31 31 32 35 38 38 31 36 37 34 35 35 37 37 37 38 38 36 37 38 38 39 40 39 39 40 41 42 41
12 14 16 15 18 19 17 15 16 17 21 22 22 22 22 22 28 29 31 32 35 35 36 36 34 36 36 36 38 37 37 37 36 37 36 38 38 39 40 39 40 40 41 41 40
8 12 13 14 16 17 17 17 17 18 17 17 19 19 19 19 20 18 21 28 32 35 35 35 32 34 35 36 36 36 38 38 37 37 37 38 38 40 41 41 40 37 39 39 39
10 10 8 11 14 16 17 18 14 16 15 18 18 15 16 17 17 18 20 24 27 30 33 33 33 32 32 35 36 35 36 37 38 38 37 36 37 39 39 39 39 38 39 39 39

GFSSW_925_temp_030.txt.gz
Temp
12 14 14 14 15 15 16 17 17 18 19 19 20 21 22 22 23 22 19 28 29 30 28 27 25 27 27 27 25 25 25 27 28 32 31 31 30 30 31 28 28 29 26 26 26
9 11 12 13 13 14 15 16 17 17 18 19 20 21 22 21 19 18 31 30 30 29 27 26 27 27 26 27 25 24 26 29 30 32 33 33 31 30 29 28 29 28 27 26 26
9 10 12 13 14 15 15 16 16 17 18 19 20 21 21 21 17 24 31 31 29 28 29 29 30 29 28 29 26 26 28 29 32 32 32 32 31 31 29 28 29 27 26 27 26
9 10 12 13 14 15 15 16 16 17 18 19 19 20 20 19 25 31 32 32 31 29 28 28 29 29 29 29 29 28 31 33 34 34 33 32 32 30 30 30 30 28 27 27 27
10 10 11 13 15 15 16 16 17 17 17 18 17 17 17 18 21 31 31 32 31 29 27 28 28 28 29 30 29 29 31 34 35 34 34 34 33 31 31 31 31 29 28 27 27
10 10 11 12 14 15 16 16 17 18 19 17 15 12 15 20 28 30 30 30 31 28 28 28 29 29 29 30 30 31 32 33 34 35 35 33 33 33 31 32 31 30 28 28 27
10 10 11 12 14 14 15 17 18 19 20 19 13 12 14 22 29 29 29 30 30 30 28 29 30 30 30 31 32 33 32 33 34 35 34 34 32 31 31 31 31 30 29 28 27
9 9 10 12 14 14 16 17 19 20 21 19 13 13 14 26 29 27 29 29 29 30 31 32 31 29 30 30 31 32 31 30 33 34 35 33 29 31 31 31 30 30 30 29 28
9 10 10 11 13 14 16 19 20 18 18 17 13 13 18 26 24 28 28 29 30 30 30 32 31 29 30 29 27 28 28 30 31 33 34 31 29 31 31 30 29 30 30 30 29
9 9 10 12 13 14 16 21 19 17 15 14 16 18 20 27 29 30 30 30 29 29 29 30 28 28 26 25 26 27 30 30 31 33 34 30 29 32 31 30 30 29 30 30 29
9 9 10 11 14 14 14 18 17 19 18 21 20 21 25 29 30 31 31 30 29 29 27 28 26 27 27 27 29 30 30 29 31 35 32 31 32 31 31 30 30 29 29 29 30
9 9 10 11 14 14 15 14 19 20 17 22 24 24 25 26 26 28 32 29 28 27 27 27 27 27 29 29 30 30 30 30 31 33 32 30 32 32 31 31 30 30 29 30 30
9 10 10 11 15 15 12 16 18 18 18 21 24 25 25 25 25 26 28 28 28 26 28 27 28 30 30 30 30 30 30 31 31 32 34 31 30 31 31 31 31 31 31 30 30
9 10 10 10 15 12 13 18 18 17 17 21 23 25 25 26 25 29 30 31 29 28 28 27 29 30 30 30 30 27 32 33 32 31 31 32 28 29 30 30 30 31 31 31 30
10 10 10 9 8 8 17 17 18 19 21 28 28 29 25 27 29 29 31 30 29 29 28 27 30 30 30 31 31 30 32 31 32 30 31 31 27 27 28 29 29 30 31 31 31
9 10 10 10 8 15 15 16 17 19 20 26 30 28 26 27 30 32 30 30 31 30 29 30 31 31 31 32 32 32 31 30 31 28 27 30 31 27 31 30 31 31 32 32 32
8 9 11 9 9 15 15 14 17 17 25 29 24 25 27 26 29 30 30 29 29 27 28 30 30 31 32 30 31 31 28 26 28 28 28 28 28 31 32 32 33 33 32 33 33
8 9 12 13 12 12 14 15 16 22 23 24 22 25 28 28 28 29 28 29 29 28 26 27 27 30 31 31 30 28 30 27 26 26 27 28 28 32 33 33 34 35 34 34 33
8 10 9 13 14 11 10 12 15 19 20 20 21 23 23 26 23 26 28 28 30 28 26 25 27 31 32 32 32 29 29 30 27 27 27 28 29 31 32 32 34 35 34 34 34
6 7 8 14 14 13 10 13 15 19 20 20 19 21 19 20 21 21 22 29 30 30 28 28 26 29 32 32 32 32 28 30 24 28 28 28 29 31 31 32 31 34 35 35 34
7 6 12 13 14 10 11 12 17 19 19 18 18 18 19 20 21 21 21 25 28 30 31 30 26 29 30 30 30 31 30 28 28 27 29 26 31 30 31 30 31 33 34 34 34
6 6 12 12 8 10 13 14 16 18 19 18 19 20 19 18 19 20 21 23 26 25 24 27 28 28 29 30 32 32 31 28 30 26 25 31 32 35 32 31 31 33 34 35 35
5 5 12 12 8 9 11 14 16 17 16 17 17 17 16 16 15 19 19 23 19 20 20 21 26 27 27 29 30 29 30 32 24 24 29 27 30 31 31 31 30 31 32 32 31
4 6 6 8 11 9 9 11 12 15 16 17 16 16 14 14 15 15 17 18 18 19 20 18 22 25 29 29 30 28 31 30 31 30 29 30 30 31 32 31 29 31 33 32 32
4 5 7 7 8 9 10 10 11 11 14 14 14 14 12 12 13 15 16 16 17 19 17 15 16 24 24 29 32 31 31 32 30 32 31 31 29 29 29 31 30 30 32 33 34
6 6 8 7 7 8 10 10 9 9 12 13 13 13 13 11 13 13 13 14 14 15 15 14 16 18 22 28 31 31 32 32 32 32 32 29 29 29 31 28 31 30 31 32 31
7 7 6 7 7 7 8 10 10 10 11 13 13 12 12 13 14 14 12 14 14 14 14 14 15 17 19 26 30 30 32 31 31 32 32 30 30 28 30 30 29 28 29 32 31

GFSSW_925_temp_033.txt.gz
Temp
9 9 11 12 14 14 15 16 16 16 17 17 18 20 21 21 22 20 19 27 28 27 25 23 23 24 25 24 25 24 23 25 28 28 28 30 28 29 29 27 27 27 25 25 23
9 9 9 10 11 13 15 15 16 16 17 17 18 20 20 19 17 16 30 29 28 26 23 22 23 25 23 25 24 23 22 28 29 30 29 29 29 28 27 27 27 26 26 24 24
8 9 9 9 9 11 13 14 15 16 16 17 18 19 18 17 16 23 30 29 25 26 26 25 25 26 25 25 25 25 25 30 30 31 30 30 29 29 27 26 27 25 24 25 24
8 9 9 10 10 10 11 13 14 15 16 16 15 18 18 17 25 30 29 30 27 26 26 27 26 25 25 26 27 26 28 29 32 31 31 30 30 29 28 28 28 26 25 25 24
10 10 10 10 11 11 12 13 14 15 16 17 13 16 16 17 21 31 30 29 25 25 27 26 26 26 27 27 28 28 30 31 33 33 31 31 29 29 28 29 28 26 26 25 25
10 10 10 11 11 12 13 14 15 16 16 15 11 11 14 19 27 29 28 27 26 25 26 26 26 26 28 28 28 30 31 31 32 32 33 30 30 29 29 29 27 26 25 25 25
9 10 10 11 11 12 14 15 17 18 17 13 10 11 13 21 28 28 28 27 28 27 24 27 29 28 27 29 30 30 30 31 31 31 32 32 30 29 30 29 27 26 26 26 25
9 10 10 11 11 12 15 17 18 18 17 14 10 12 15 25 25 26 28 27 28 28 30 30 29 27 28 28 29 31 30 29 31 30 33 32 30 30 29 29 27 27 26 26 26
10 10 11 11 12 13 15 18 17 16 16 13 12 12 17 24 23 27 26 27 28 28 28 29 28 26 28 26 26 26 27 28 29 31 32 31 29 29 30 29 28 27 27 27 26
10 10 10 11 12 13 16 18 16 14 13 13 15 16 19 25 26 27 27 27 27 26 27 27 26 24 23 24 24 26 28 29 29 32 30 29 28 29 29 29 28 28 27 27 26
9 10 10 10 13 14 16 17 15 16 17 18 19 20 22 26 28 28 27 27 28 26 24 25 24 23 25 25 27 29 29 28 29 32 32 29 28 29 29 29 29 28 28 27 27
10 10 10 10 14 14 14 14 15 15 13 18 18 20 23 24 24 26 28 26 25 25 25 25 25 25 26 26 27 27 28 28 29 31 31 30 29 29 29 29 29 29 29 28 28
10 10 10 11 14 14 11 15 15 14 13 18 21 21 23 23 22 24 26 26 26 24 25 26 26 27 27 27 27 26 27 29 29 30 31 28 28 28 29 29 29 29 29 29 29
9 10 10 9 14 11 13 15 15 13 16 20 22 22 23 23 22 26 27 28 27 26 25 25 27 28 27 27 27 25 28 30 30 29 28 29 26 26 28 28 29 28 28 29 29
9 10 10 9 8 8 15 15 15 15 20 26 25 25 23 25 27 25 28 28 26 26 26 26 26 28 27 28 28 28 30 29 30 29 28 29 27 26 28 28 28 29 29 29 29
9 9 10 9 7 11 12 14 15 18 19 25 27 25 24 25 27 26 27 29 28 27 27 28 28 29 28 29 29 30 30 28 28 25 25 29 27 29 28 29 29 30 30 30 30
9 10 11 8 8 12 12 12 16 17 22 24 21 21 23 25 27 28 27 26 26 25 26 27 28 28 29 27 28 28 25 24 25 24 26 27 26 30 29 31 32 31 30 31 30
9 11 11 10 11 9 11 13 15 20 20 20 20 21 24 22 24 23 27 27 27 26 26 25 25 28 28 28 27 25 26 21 24 24 26 26 26 29 31 31 32 33 32 31 31
9 11 9 12 12 10 8 11 14 17 19 19 19 21 18 20 21 21 20 28 28 25 26 25 25 28 30 29 29 27 26 27 25 24 23 25 27 28 30 30 30 31 31 31 31
7 6 7 11 11 10 8 11 13 18 18 18 18 18 17 18 19 19 20 23 23 27 27 25 25 26 29 29 29 29 26 27 20 26 26 25 26 28 28 31 28 31 30 32 32
7 4 12 12 11 8 8 9 14 17 18 17 17 16 17 17 18 19 20 21 21 21 22 24 24 27 27 26 29 27 27 26 25 23 26 25 28 28 29 29 29 30 31 33 32
4 5 13 11 7 6 9 10 15 16 17 16 18 17 17 16 16 18 19 20 19 19 18 19 19 25 27 27 30 29 28 24 24 25 23 29 28 31 31 30 29 29 31 32 33
3 3 11 10 7 7 10 12 13 13 14 15 16 16 15 15 16 16 17 19 18 17 16 17 17 22 24 26 26 27 27 29 29 23 28 27 26 28 29 31 28 28 28 31 32
4 5 4 6 8 8 7 10 10 11 13 14 14 14 13 13 15 14 15 17 17 18 18 15 14 19 22 24 26 26 28 28 28 27 29 29 29 30 29 28 29 27 28 28 30
5 5 5 5 6 6 9 9 9 9 10 12 12 12 12 11 12 13 14 14 16 17 15 14 13 17 19 20 22 25 28 30 27 29 29 30 28 28 27 27 28 28 28 29 29
6 6 7 6 7 6 7 10 9 9 8 10 10 12 11 11 12 11 12 13 13 14 14 12 14 14 18 22 23 25 27 29 30 30 28 29 27 27 29 26 28 29 28 27 28
7 7 6 6 7 7 6 8 9 9 10 10 11 10 10 11 11 11 11 11 12 13 13 12 13 14 15 19 20 24 27 29 30 30 30 29 27 28 28 27 27 27 27 28 28